Wind_Speed
35 35 35 36 36 35 34 32 30 27 25 25 27 28 28 29 29 28 28 27 28 29 30 30 32 34 36 39 43 47 51 54 58 61 64 67 69 71 73 75 76 77 79 81
33 33 34 34 36 37 36 35 33 31 28 28 30 30 30 29 29 28 28 28 29 29 30 31 34 37 40 44 47 51 54 58 62 65 67 70 72 73 74 75 76 78 80 83
30 32 33 34 32 33 33 32 32 30 27 30 30 30 29 29 28 28 29 29 30 30 32 35 38 40 44 47 51 54 58 62 65 68 70 71 72 73 73 75 76 79 82 85
28 29 30 28 29 30 29 29 29 28 27 29 29 28 28 28 28 29 29 30 31 32 35 37 40 43 47 50 54 58 62 66 69 70 71 71 71 72 74 76 78 82 85 88
25 25 24 23 24 25 26 25 26 26 26 27 26 27 27 27 28 29 30 31 33 35 37 40 42 46 50 54 58 62 66 69 70 69 69 69 71 72 75 77 81 85 88 90
22 20 18 19 21 23 23 22 22 23 24 25 25 27 27 29 30 31 32 33 35 37 39 42 45 50 54 58 62 66 68 69 68 67 68 69 71 74 77 81 84 87 90 91
20 19 18 18 19 20 20 19 21 22 24 26 27 29 30 30 31 32 33 34 36 38 41 45 50 54 58 62 65 67 67 66 65 66 68 70 74 77 81 85 88 90 90 89
20 20 17 18 19 20 20 21 23 25 26 27 27 28 29 30 31 32 33 35 38 42 46 50 54 58 62 64 65 64 63 63 64 66 70 74 78 82 86 89 90 90 87 84
18 16 16 17 18 19 21 22 23 24 25 26 26 27 28 29 31 33 35 38 42 46 50 54 58 61 62 62 61 60 60 61 65 69 73 78 82 86 89 91 90 87 83 78
15 14 14 14 16 17 19 20 22 23 24 25 26 27 29 31 33 36 39 43 47 50 54 57 59 59 58 57 56 57 60 64 68 73 78 82 86 89 91 90 86 82 77 73
13 12 13 14 15 17 19 21 22 24 25 27 28 30 32 35 37 40 44 47 50 53 56 56 56 54 53 54 56 59 64 68 73 78 82 86 89 90 89 85 81 77 73 71
13 14 14 16 17 19 21 23 26 27 29 31 32 34 36 39 41 44 47 50 52 53 53 52 51 51 52 55 59 63 68 73 78 82 86 89 90 88 84 79 73 71 70 71
18 19 20 21 23 25 26 28 29 31 32 33 35 37 39 42 44 47 49 50 50 49 49 48 49 51 54 59 63 68 74 78 82 86 90 91 89 85 78 72 68 68 69 71
25 26 27 28 29 30 30 31 31 32 33 35 37 39 41 44 46 47 47 47 46 46 47 48 51 54 59 64 69 74 79 83 86 89 91 89 84 78 73 69 67 67 69 72
31 32 32 32 33 32 32 32 32 33 35 37 39 41 43 44 45 45 44 44 44 46 48 51 55 59 64 69 74 78 82 86 89 90 88 83 77 72 69 69 69 70 71 72
35 35 35 34 34 33 33 33 34 35 37 38 40 41 42 42 42 42 42 44 46 48 51 55 59 64 69 74 78 82 85 88 90 87 82 75 71 69 69 70 71 72 72 69
35 34 34 33 33 34 34 35 36 37 38 39 40 40 40 40 41 42 44 46 49 52 56 60 64 69 74 78 81 85 87 88 86 80 74 70 69 70 71 72 73 72 67 60
34 34 34 33 34 34 34 35 36 37 38 39 39 39 39 40 42 45 47 49 53 57 61 65 69 73 77 81 84 87 87 85 79 73 69 69 70 71 73 73 71 65 57 50
33 33 33 33 33 34 35 35 36 37 38 38 38 39 40 42 45 47 50 53 57 61 65 69 73 76 80 83 86 86 83 78 72 69 68 69 71 73 73 70 63 55 48 43
31 32 32 33 33 34 35 35 36 37 37 38 39 40 43 45 48 51 54 58 62 65 69 73 76 79 82 84 85 82 77 71 68 68 69 71 72 72 68 61 53 45 40 35
32 32 33 33 33 33 34 35 36 36 37 39 41 43 46 49 52 55 59 62 65 69 72 75 78 80 83 83 81 75 70 67 67 68 70 72 70 65 58 50 43 37 32 28
32 32 32 32 32 33 33 34 36 38 40 42 44 47 50 53 56 59 62 66 69 71 74 77 79 82 82 79 74 69 67 66 68 70 71 68 63 55 47 40 35 30 26 22
31 31 31 31 32 33 35 37 39 41 43 45 48 51 54 57 60 63 66 68 71 73 76 78 80 81 78 73 68 65 65 67 69 69 66 60 53 46 39 33 29 24 21 16
30 30 32 33 34 36 38 40 42 44 47 49 52 55 58 61 64 66 68 70 72 75 77 79 79 76 71 66 64 64 66 68 67 63 57 52 45 39 33 28 24 19 14 7
31 33 34 36 38 39 41 43 46 48 51 53 56 59 62 64 66 68 69 71 73 76 77 77 73 69 65 63 63 65 67 66 61 56 50 45 39 34 28 23 18 12 6 3
34 36 38 39 41 43 45 47 50 53 55 58 61 63 65 66 67 68 70 72 75 76 74 70 66 63 62 63 65 66 64 60 54 49 44 39 34 29 23 17 10 3 4 11
38 40 41 43 45 48 50 52 55 58 60 62 64 64 65 66 67 69 72 74 74 72 68 64 61 61 62 65 65 63 58 53 48 43 39 35 30 23 16 9 3 6 13 19
Wind_Direction
209 211 214 217 219 223 227 230 236 238 237 238 244 246 248 251 254 259 263 269 273 278 281 284 286 288 290 294 297 299 302 304 305 306 307 308 308 308 308 308 308 308 310 311
210 215 218 221 223 226 230 234 237 238 236 240 245 247 249 253 256 260 264 269 273 277 281 284 287 290 293 296 299 302 304 305 306 307 307 308 308 307 307 308 309 310 312 312
211 217 221 224 227 231 235 238 240 240 238 242 245 248 250 254 257 261 265 269 275 280 283 286 289 293 296 298 301 303 305 306 307 307 308 308 307 307 308 309 310 312 313 313
214 219 224 224 228 232 235 236 239 239 238 243 247 250 253 255 259 263 267 273 278 281 285 288 291 295 298 301 303 304 305 306 307 308 308 307 307 308 309 311 312 313 313 314
217 223 225 226 228 231 233 234 237 238 239 243 247 251 254 258 262 266 271 275 279 283 286 290 293 297 299 302 303 304 306 307 308 308 308 308 309 310 311 312 313 314 314 314
217 223 220 220 225 228 231 232 235 238 241 245 249 254 258 261 266 270 273 277 281 285 288 292 295 298 300 301 303 305 306 308 309 309 309 310 311 312 313 314 314 314 314 314
218 223 219 218 224 229 232 231 237 243 248 252 256 260 263 266 270 273 276 280 284 288 291 293 296 298 300 302 304 306 308 309 310 311 312 313 314 315 315 315 315 315 314 314
219 223 220 224 230 236 241 242 246 250 255 259 261 264 267 269 272 275 279 282 286 289 291 294 296 299 301 304 306 308 310 311 313 314 315 316 316 316 316 315 315 315 314 314
221 224 227 234 242 246 250 254 256 258 261 263 265 266 268 271 274 278 282 285 287 290 293 296 298 301 304 306 308 311 312 314 315 316 317 318 317 317 316 316 315 315 314 314
216 222 231 239 246 251 255 258 261 263 264 265 266 269 272 275 278 281 284 286 289 292 295 298 301 304 307 309 312 313 315 316 317 317 318 318 318 317 316 316 315 315 314 315
216 228 240 250 256 259 262 263 264 265 266 268 270 272 275 278 280 283 286 289 292 295 299 302 305 308 310 312 314 315 316 317 318 318 318 318 318 317 317 316 316 316 316 317
231 241 252 259 264 267 267 267 267 268 269 271 273 275 278 280 282 286 289 293 296 300 303 305 308 310 312 314 315 316 317 318 318 319 319 318 318 317 317 317 317 317 318 319
249 256 263 267 269 270 270 269 269 270 271 273 276 278 280 283 286 290 294 297 301 303 306 308 310 311 313 315 316 317 318 318 319 319 319 318 318 318 318 318 318 318 318 318
261 266 268 270 271 273 274 273 273 273 274 276 278 281 284 287 291 295 298 301 303 305 307 309 311 312 314 316 317 318 319 319 319 319 319 318 318 318 318 318 318 318 319 319
265 268 269 270 271 272 273 273 274 275 277 279 282 284 287 291 295 298 301 303 305 306 308 310 312 314 316 318 318 319 319 319 319 318 318 318 319 319 319 319 319 320 320 320
265 267 268 269 270 270 271 272 274 276 279 281 284 287 291 294 297 300 302 304 306 308 310 312 314 316 317 318 318 319 318 318 318 318 318 319 319 319 319 320 320 321 321 321
263 265 266 267 268 270 272 274 276 279 281 284 287 290 293 296 299 301 303 305 308 310 312 314 315 316 317 318 318 318 318 318 318 318 318 319 319 319 320 320 320 321 322 322
261 263 265 267 269 271 273 275 277 280 283 287 289 292 295 298 301 304 306 308 310 312 313 315 315 316 316 317 317 317 317 317 318 318 319 319 320 320 320 320 321 321 322 323
261 263 265 268 270 272 274 277 280 283 285 288 291 294 298 302 304 306 308 309 311 313 313 314 315 315 316 316 316 316 317 317 317 318 319 319 319 320 320 320 321 321 323 324
262 264 266 268 270 273 276 279 281 284 286 290 294 298 301 303 305 307 309 310 312 312 313 313 314 315 315 315 316 316 316 316 317 318 319 319 320 320 320 321 321 322 324 326
262 264 266 269 272 274 277 280 282 285 289 293 297 300 302 304 306 308 309 310 311 311 312 312 313 314 315 315 315 315 315 316 317 318 319 320 320 321 321 322 323 324 326 328
264 266 268 270 273 276 279 282 285 288 292 296 298 301 303 305 307 308 309 309 310 310 311 311 313 314 314 315 314 314 315 316 317 318 319 320 321 322 323 323 324 326 328 331
264 266 268 271 274 277 280 284 287 291 294 297 299 302 304 305 307 308 308 308 309 309 310 311 313 313 314 314 313 314 315 316 318 319 320 321 322 323 324 324 325 326 329 332
263 266 269 272 275 279 282 286 289 293 296 298 300 302 304 305 306 306 307 307 308 309 310 312 313 313 313 313 313 315 316 317 318 319 321 322 322 323 323 324 324 325 329 336
263 266 269 272 276 280 284 288 291 294 297 299 301 302 304 304 305 305 306 307 308 310 311 312 312 312 312 313 314 315 317 318 319 320 321 321 321 321 321 321 321 323 329 130
265 268 272 276 280 284 287 290 293 295 298 300 301 302 303 304 304 305 306 308 309 310 311 312 312 312 313 314 315 316 317 318 319 319 320 320 319 318 317 315 314 309 147 143
270 274 277 281 284 287 290 292 295 297 299 300 301 302 303 303 304 306 307 309 310 311 311 311 311 312 313 315 316 317 317 318 318 319 319 318 317 315 309 300 255 160 149 145
Height
5661 5666 5672 5676 5681 5685 5689 5694 5698 5703 5705 5706 5706 5707 5708 5709 5709 5710 5710 5710 5709 5708 5706 5704 5702 5699 5696 5692 5688 5683 5677 5671 5665 5658 5650 5642 5633 5624 5614 5603 5592 5581 5571 5559
5658 5663 5667 5671 5676 5679 5683 5687 5691 5695 5698 5699 5699 5700 5701 5702 5703 5703 5703 5703 5702 5700 5699 5696 5694 5691 5687 5683 5678 5672 5667 5660 5653 5645 5637 5628 5618 5608 5598 5587 5576 5565 5553 5541
5655 5659 5663 5668 5672 5675 5679 5682 5685 5688 5693 5691 5692 5693 5694 5695 5696 5696 5696 5695 5694 5693 5690 5688 5685 5681 5677 5672 5667 5661 5655 5648 5640 5631 5622 5613 5603 5593 5582 5571 5560 5548 5536 5523
5651 5656 5659 5666 5667 5670 5673 5675 5678 5681 5684 5684 5686 5687 5688 5688 5689 5689 5688 5687 5686 5684 5682 5679 5676 5672 5667 5662 5656 5650 5642 5634 5626 5617 5607 5597 5587 5577 5566 5555 5543 5531 5518 5505
5648 5651 5656 5660 5662 5664 5667 5670 5673 5675 5677 5678 5679 5680 5681 5681 5681 5681 5681 5679 5678 5676 5674 5670 5666 5662 5657 5651 5644 5637 5629 5620 5611 5602 5592 5582 5572 5562 5551 5540 5527 5514 5500 5486
5645 5648 5653 5657 5657 5659 5663 5665 5667 5669 5670 5671 5672 5673 5675 5674 5674 5673 5672 5671 5670 5667 5664 5661 5657 5652 5646 5639 5631 5623 5614 5605 5596 5586 5577 5567 5557 5546 5535 5523 5510 5496 5481 5466
5641 5644 5648 5651 5653 5655 5660 5662 5662 5662 5664 5665 5666 5667 5667 5666 5666 5665 5664 5663 5661 5658 5655 5651 5646 5640 5634 5626 5618 5609 5600 5590 5581 5571 5562 5552 5541 5530 5517 5505 5492 5478 5463 5447
5637 5640 5647 5647 5649 5651 5653 5654 5656 5656 5657 5658 5658 5658 5658 5658 5658 5657 5656 5654 5652 5649 5645 5640 5635 5628 5621 5613 5604 5595 5586 5576 5567 5557 5546 5535 5524 5511 5498 5484 5472 5458 5443 5429
5635 5640 5641 5642 5644 5645 5647 5648 5649 5650 5650 5651 5651 5651 5651 5650 5650 5649 5647 5645 5642 5638 5634 5628 5622 5615 5607 5598 5589 5580 5571 5562 5552 5542 5530 5518 5506 5492 5479 5464 5450 5437 5424 5412
5631 5634 5635 5637 5639 5640 5641 5642 5642 5643 5644 5644 5644 5643 5643 5643 5641 5640 5637 5635 5631 5627 5621 5615 5608 5600 5592 5584 5575 5567 5558 5548 5538 5527 5515 5502 5488 5473 5458 5443 5430 5417 5405 5394
5627 5630 5631 5633 5634 5635 5635 5636 5636 5636 5636 5636 5636 5636 5635 5634 5632 5630 5627 5624 5619 5614 5608 5601 5594 5587 5579 5571 5563 5554 5544 5534 5523 5511 5498 5485 5470 5455 5439 5424 5409 5397 5386 5376
5624 5626 5627 5628 5628 5629 5629 5629 5629 5629 5629 5628 5628 5627 5626 5624 5622 5619 5616 5611 5606 5600 5594 5588 5581 5574 5567 5559 5550 5540 5530 5519 5507 5494 5480 5466 5452 5439 5423 5409 5396 5382 5370 5359
5619 5620 5621 5621 5622 5622 5622 5622 5621 5621 5621 5620 5619 5618 5616 5613 5611 5607 5603 5598 5593 5587 5582 5575 5569 5562 5554 5546 5536 5526 5515 5503 5490 5476 5462 5448 5433 5420 5409 5397 5384 5372 5360 5347
5612 5613 5614 5614 5614 5614 5613 5613 5612 5612 5611 5610 5609 5607 5605 5602 5599 5595 5591 5586 5581 5576 5570 5564 5557 5549 5541 5531 5521 5510 5498 5485 5472 5458 5443 5429 5415 5403 5391 5381 5372 5361 5348 5334
5604 5605 5605 5605 5605 5605 5604 5604 5603 5603 5602 5600 5599 5596 5594 5590 5587 5583 5579 5574 5570 5564 5558 5552 5544 5536 5527 5516 5505 5493 5481 5468 5454 5440 5425 5412 5399 5387 5377 5366 5355 5345 5333 5321
5594 5595 5595 5595 5595 5595 5595 5595 5594 5593 5592 5590 5588 5585 5582 5579 5575 5572 5567 5563 5558 5553 5546 5538 5530 5521 5511 5501 5489 5477 5464 5450 5436 5422 5408 5396 5384 5373 5363 5352 5341 5329 5317 5305
5585 5585 5585 5586 5586 5586 5586 5585 5584 5583 5581 5579 5577 5574 5571 5568 5565 5561 5556 5551 5546 5540 5532 5524 5515 5505 5495 5484 5473 5460 5448 5434 5419 5406 5393 5382 5371 5360 5349 5338 5326 5315 5303 5291
5575 5576 5576 5576 5576 5576 5576 5575 5574 5573 5571 5569 5566 5564 5561 5558 5554 5549 5544 5539 5532 5525 5518 5509 5500 5490 5479 5468 5456 5443 5430 5416 5403 5391 5380 5369 5358 5346 5335 5323 5312 5301 5291 5282
5566 5566 5567 5567 5567 5567 5567 5566 5565 5563 5561 5558 5556 5553 5550 5546 5542 5537 5531 5525 5518 5511 5502 5494 5484 5473 5462 5450 5438 5425 5412 5400 5388 5378 5367 5357 5345 5333 5321 5310 5299 5289 5280 5273
5556 5557 5558 5558 5558 5558 5557 5556 5555 5553 5551 5548 5546 5543 5539 5535 5530 5524 5518 5511 5504 5495 5486 5477 5467 5456 5445 5433 5420 5407 5396 5385 5375 5365 5355 5343 5332 5320 5308 5297 5287 5279 5272 5266
5547 5548 5548 5549 5549 5548 5547 5546 5544 5542 5540 5538 5535 5531 5527 5522 5517 5510 5503 5496 5488 5479 5470 5460 5450 5439 5428 5416 5403 5392 5381 5372 5362 5352 5341 5330 5319 5307 5296 5287 5279 5272 5266 5261
5538 5539 5539 5539 5539 5538 5537 5535 5534 5532 5529 5526 5523 5519 5514 5508 5502 5495 5488 5480 5472 5463 5453 5443 5433 5422 5410 5398 5387 5377 5368 5359 5349 5338 5327 5316 5306 5296 5287 5279 5273 5267 5262 5257
5529 5529 5530 5529 5529 5528 5527 5525 5523 5520 5518 5514 5510 5505 5500 5494 5487 5480 5473 5464 5455 5446 5436 5426 5416 5404 5393 5382 5372 5364 5355 5345 5335 5325 5314 5304 5294 5286 5279 5273 5267 5262 5258 5255
5520 5520 5520 5519 5519 5517 5515 5513 5511 5508 5504 5500 5496 5490 5484 5478 5471 5464 5456 5447 5439 5429 5419 5409 5398 5387 5377 5367 5359 5350 5341 5332 5321 5311 5301 5293 5285 5278 5272 5267 5263 5259 5256 5254
5511 5510 5510 5509 5507 5506 5504 5501 5498 5495 5491 5486 5481 5475 5468 5461 5455 5447 5439 5430 5422 5412 5402 5391 5381 5371 5362 5353 5345 5336 5327 5317 5307 5298 5291 5283 5277 5271 5266 5262 5259 5256 5254 5253
5500 5500 5499 5497 5496 5494 5491 5488 5485 5481 5476 5471 5465 5458 5452 5444 5437 5429 5421 5413 5404 5394 5384 5374 5365 5356 5348 5339 5331 5322 5312 5303 5294 5287 5280 5273 5268 5264 5260 5257 5255 5254 5254 5254
5489 5488 5487 5485 5483 5480 5477 5474 5470 5465 5460 5454 5448 5441 5434 5427 5420 5412 5404 5395 5386 5377 5367 5358 5350 5342 5334 5325 5316 5307 5298 5289 5282 5276 5270 5265 5260 5257 5254 5253 5253 5253 5254 5257